Total_Precipitation_Accumulation
0.00 0.00 0.00 0.00 0.01 0.01 0.02 0.03 0.05 0.08 0.09 0.09 0.11 0.11 0.12 0.11 0.09 0.10 0.09 0.10 0.10 0.09 0.09 0.16 0.30 0.60 0.88 0.94 0.99 0.91 0.80 0.74 0.60 0.45 0.41 0.47 0.48 0.40 0.26 0.18 0.13 0.09 0.06
0.00 0.00 0.00 0.00 0.00 0.00 0.00 0.00 0.01 0.02 0.02 0.03 0.04 0.05 0.07 0.08 0.08 0.11 0.12 0.14 0.13 0.11 0.10 0.11 0.17 0.34 0.65 0.87 1.01 1.18 1.03 0.90 0.84 0.65 0.46 0.42 0.42 0.42 0.36 0.23 0.15 0.12 0.08
0.00 0.00 0.00 0.00 0.00 0.00 0.00 0.00 0.00 0.00 0.00 0.01 0.01 0.01 0.02 0.03 0.05 0.07 0.09 0.13 0.17 0.15 0.13 0.11 0.12 0.19 0.34 0.60 0.85 1.16 1.35 1.12 1.03 0.98 0.75 0.49 0.39 0.37 0.38 0.33 0.22 0.17 0.12
0.00 0.00 0.00 0.00 0.00 0.00 0.00 0.00 0.00 0.00 0.00 0.00 0.00 0.00 0.00 0.00 0.01 0.02 0.05 0.08 0.14 0.17 0.15 0.15 0.14 0.14 0.20 0.35 0.58 0.90 1.47 1.45 1.27 1.21 1.17 0.86 0.54 0.40 0.34 0.33 0.29 0.21 0.18
0.00 0.00 0.00 0.00 0.00 0.00 0.00 0.00 0.00 0.00 0.00 0.00 0.00 0.00 0.00 0.00 0.00 0.00 0.01 0.03 0.06 0.13 0.17 0.17 0.18 0.16 0.16 0.20 0.35 0.64 1.24 1.59 1.59 1.53 1.49 1.33 0.93 0.58 0.40 0.33 0.31 0.27 0.21
0.00 0.00 0.00 0.00 0.00 0.00 0.00 0.00 0.00 0.00 0.00 0.00 0.00 0.00 0.00 0.00 0.00 0.00 0.00 0.01 0.02 0.04 0.11 0.15 0.18 0.18 0.15 0.14 0.17 0.31 0.68 1.13 1.41 1.57 1.61 1.67 1.48 0.97 0.58 0.40 0.31 0.31 0.25
0.00 0.00 0.00 0.00 0.00 0.00 0.00 0.00 0.00 0.00 0.00 0.01 0.02 0.01 0.00 0.00 0.00 0.00 0.00 0.00 0.01 0.01 0.03 0.08 0.14 0.19 0.18 0.16 0.14 0.14 0.27 0.59 0.95 1.21 1.36 1.53 1.76 1.54 0.97 0.59 0.40 0.33 0.31
0.00 0.00 0.00 0.00 0.00 0.00 0.00 0.00 0.00 0.01 0.01 0.01 0.04 0.07 0.02 0.00 0.00 0.00 0.00 0.00 0.00 0.01 0.02 0.04 0.08 0.14 0.19 0.19 0.13 0.11 0.13 0.28 0.61 0.96 1.17 1.31 1.55 1.80 1.52 0.95 0.60 0.44 0.38
0.00 0.00 0.00 0.00 0.00 0.00 0.00 0.00 0.01 0.02 0.03 0.01 0.03 0.13 0.17 0.09 0.03 0.00 0.00 0.01 0.01 0.01 0.01 0.02 0.04 0.07 0.13 0.20 0.18 0.12 0.08 0.12 0.31 0.62 1.02 1.25 1.40 1.65 1.76 1.42 0.91 0.59 0.45
0.00 0.00 0.00 0.00 0.00 0.00 0.01 0.01 0.01 0.02 0.05 0.06 0.03 0.06 0.13 0.17 0.17 0.07 0.02 0.02 0.03 0.03 0.02 0.02 0.02 0.04 0.07 0.13 0.19 0.19 0.13 0.10 0.15 0.35 0.68 1.14 1.43 1.57 1.81 1.68 1.29 0.84 0.58
0.00 0.00 0.00 0.00 0.00 0.00 0.01 0.01 0.01 0.02 0.05 0.08 0.09 0.08 0.07 0.07 0.10 0.15 0.07 0.02 0.04 0.04 0.04 0.03 0.03 0.03 0.05 0.09 0.14 0.18 0.20 0.18 0.21 0.28 0.47 0.85 1.46 1.67 1.93 2.01 1.62 1.09 0.73
0.01 0.01 0.00 0.00 0.00 0.01 0.01 0.02 0.02 0.03 0.04 0.06 0.08 0.10 0.12 0.13 0.10 0.13 0.12 0.05 0.02 0.02 0.04 0.04 0.05 0.07 0.08 0.09 0.11 0.19 0.22 0.23 0.31 0.33 0.34 0.58 1.09 1.68 1.99 2.18 1.94 1.36 0.89
0.02 0.01 0.00 0.00 0.00 0.01 0.02 0.02 0.04 0.04 0.04 0.06 0.08 0.09 0.10 0.10 0.10 0.13 0.15 0.09 0.04 0.02 0.01 0.03 0.04 0.07 0.10 0.12 0.14 0.18 0.19 0.22 0.27 0.30 0.28 0.34 0.62 1.16 1.78 2.20 2.33 1.92 1.29
0.02 0.01 0.00 0.00 0.01 0.01 0.02 0.04 0.05 0.05 0.06 0.07 0.07 0.09 0.11 0.09 0.10 0.13 0.16 0.17 0.13 0.05 0.02 0.02 0.02 0.04 0.08 0.13 0.13 0.13 0.12 0.18 0.22 0.24 0.25 0.26 0.37 0.67 1.17 1.75 2.37 2.66 2.20
0.01 0.00 0.00 0.00 0.01 0.02 0.04 0.05 0.06 0.06 0.08 0.10 0.11 0.12 0.15 0.12 0.12 0.12 0.14 0.18 0.23 0.16 0.05 0.01 0.02 0.03 0.07 0.12 0.13 0.11 0.10 0.12 0.16 0.17 0.19 0.21 0.27 0.42 0.70 1.14 1.64 2.40 2.85
0.00 0.00 0.00 0.01 0.03 0.04 0.05 0.06 0.08 0.08 0.11 0.13 0.17 0.18 0.18 0.18 0.19 0.19 0.19 0.17 0.19 0.21 0.12 0.02 0.02 0.04 0.08 0.15 0.17 0.13 0.12 0.13 0.13 0.14 0.14 0.15 0.18 0.27 0.45 0.73 1.08 1.55 2.26
0.00 0.00 0.01 0.03 0.06 0.07 0.07 0.09 0.09 0.11 0.14 0.15 0.17 0.21 0.22 0.24 0.29 0.30 0.32 0.29 0.23 0.22 0.18 0.05 0.01 0.04 0.12 0.19 0.19 0.14 0.14 0.13 0.11 0.13 0.14 0.14 0.15 0.19 0.31 0.48 0.68 0.96 1.43
0.00 0.00 0.02 0.05 0.09 0.10 0.10 0.12 0.13 0.14 0.17 0.18 0.20 0.23 0.26 0.28 0.32 0.36 0.42 0.42 0.34 0.27 0.23 0.12 0.04 0.04 0.11 0.22 0.25 0.20 0.17 0.15 0.11 0.11 0.14 0.15 0.17 0.19 0.24 0.33 0.45 0.63 0.90
0.00 0.00 0.02 0.07 0.14 0.20 0.18 0.15 0.18 0.19 0.18 0.19 0.21 0.27 0.31 0.34 0.33 0.37 0.46 0.49 0.42 0.34 0.29 0.21 0.10 0.05 0.09 0.21 0.31 0.28 0.24 0.23 0.17 0.14 0.14 0.15 0.18 0.21 0.23 0.26 0.32 0.42 0.55
0.00 0.01 0.01 0.05 0.16 0.29 0.31 0.31 0.33 0.26 0.19 0.14 0.14 0.19 0.31 0.44 0.49 0.51 0.48 0.45 0.45 0.42 0.37 0.30 0.20 0.12 0.11 0.20 0.32 0.37 0.33 0.29 0.25 0.21 0.18 0.16 0.18 0.21 0.22 0.21 0.18 0.23 0.38
0.00 0.00 0.01 0.02 0.12 0.38 0.63 0.76 0.60 0.29 0.13 0.10 0.10 0.15 0.27 0.47 0.60 0.71 0.68 0.55 0.49 0.49 0.48 0.43 0.35 0.27 0.21 0.24 0.31 0.38 0.43 0.40 0.38 0.31 0.22 0.18 0.18 0.17 0.18 0.21 0.22 0.20 0.25
0.00 0.00 0.00 0.01 0.06 0.35 0.71 0.89 0.52 0.16 0.09 0.11 0.13 0.16 0.24 0.44 0.55 0.59 0.63 0.59 0.58 0.62 0.62 0.56 0.51 0.44 0.35 0.30 0.31 0.38 0.48 0.53 0.49 0.43 0.31 0.23 0.22 0.20 0.17 0.16 0.19 0.18 0.18
0.00 0.00 0.00 0.00 0.02 0.18 0.54 0.75 0.40 0.10 0.09 0.12 0.14 0.14 0.19 0.32 0.42 0.46 0.41 0.38 0.42 0.52 0.65 0.67 0.64 0.58 0.49 0.40 0.38 0.41 0.46 0.54 0.54 0.61 0.51 0.41 0.31 0.26 0.21 0.22 0.22 0.18 0.17
0.00 0.00 0.00 0.00 0.00 0.08 0.40 0.64 0.33 0.07 0.08 0.12 0.15 0.13 0.10 0.18 0.30 0.33 0.26 0.31 0.39 0.49 0.64 0.72 0.76 0.70 0.58 0.51 0.49 0.53 0.55 0.51 0.56 0.73 0.69 0.64 0.57 0.39 0.31 0.27 0.26 0.20 0.17
0.00 0.00 0.00 0.00 0.00 0.02 0.26 0.59 0.35 0.07 0.07 0.10 0.14 0.12 0.07 0.08 0.17 0.15 0.11 0.20 0.26 0.36 0.48 0.58 0.57 0.51 0.45 0.50 0.60 0.66 0.71 0.64 0.66 0.85 0.83 0.74 0.83 0.72 0.61 0.49 0.39 0.29 0.21
0.00 0.00 0.00 0.00 0.00 0.00 0.12 0.47 0.44 0.10 0.06 0.07 0.09 0.09 0.10 0.10 0.09 0.08 0.06 0.10 0.19 0.25 0.29 0.32 0.34 0.32 0.32 0.38 0.52 0.73 0.93 0.87 0.77 0.91 1.01 0.86 0.93 0.86 0.93 0.88 0.60 0.38 0.28